Regional Weather Roundup
Issued by NWS

Home | Current Version | Previous Version | Text Only | Print | Product List | Glossary Off
Versions: 1 2 3 4 5 6 7 8 9 10 11 12 13 14 15 16 17 18 19 20 21 22 23 24 25 26 27 28 29 30 31 32 33 34 35 36 37 38 39 40 41 42 43 44 45 46 47 48 49 50

782
ASUS44 KLIX 231510
RWRLA
LOUISIANA WEATHER ROUNDUP
NATIONAL WEATHER SERVICE NEW ORLEANS LA
1000 AM CDT SAT AUG 23 2014

NOTE: "FAIR" INDICATES FEW OR NO CLOUDS BELOW 12,000 FEET WITH NO
      SIGNIFICANT WEATHER AND/OR OBSTRUCTIONS TO VISIBILITY.
      SKY/WX - SKY CONDITION AND SIGNIFICANT WEATHER.
      TMP - AIR TEMPERATURE.    DP   - DEWPOINT TEMPERATURE.
      RH  - RELATIVE HUMIDITY.  PRES - PRESSURE.
      HX  - HEAT INDEX.         WCI  - WIND CHILL INDEX.

*  THESE STATIONS ARE NOT NWS OR FAA STATIONS AND ARE NOT UNDER
   NWS QUALITY CONTROL.

LAZ040-048-061>063-065-066-069-231600-
SOUTHEAST LOUISIANA

CITY           SKY/WX    TMP DP  RH WIND       PRES   REMARKS
N.O. AUDUBON     N/A     90  78  68 MISG        N/A  HX 105
N.O. INTL ARPT MOSUNNY   88  76  67 N8        30.04S HX  99
N.O. LAKEFRONT SUNNY     87  77  72 N8        30.05R HX  99
N.O. DOWNTOWN* FAIR      88  73  62 N7        30.05S HX  96
SLIDELL        SUNNY     89  76  65 N5        30.03S HX 100
BATON ROUGE    SUNNY     87  76  69 NW6       30.05S HX  97
BOOTHVILLE     MOSUNNY   87  79  76 NW13      30.04S HX 101
BELLE CHASSE   MOSUNNY   89  74  60 VRB7      30.03S HX  98
BOGALUSA*      FAIR      89  74  63 N3        30.06S HX  98
GALLIANO*      NOT AVBL
NEW ROADS*     FAIR      85  77  75 NW6       30.05S HX  95
GONZALES*      FAIR      87  78  76 NW5       30.05S HX  99
HAMMOND*       SUNNY     90  73  58 N3        30.06S HX  98
HOUMA*         MOSUNNY   90  75  62 N9        30.04S HX 100
PORT FOURCHON* MOSUNNY   88  77  70 N12       30.06R HX 100

$$

LAZ041-044-053-054-231600-
SOUTHWEST LOUISIANA

CITY           SKY/WX    TMP DP  RH WIND       PRES   REMARKS
LAKE CHARLES   MOSUNNY   87  76  69 CALM      30.04S HX  97
LAFAYETTE      MOSUNNY   86  77  74 W3        30.05S HX  97
PATTERSON      MOSUNNY   88  79  74 N6        30.08R HX 102
SALT POINT       N/A     89  79  72 N5        30.04R HX 104
NEW IBERIA     SUNNY     88  78  72 NW5       30.06R HX 101
CHENAULT AIRPK SUNNY     84  75  74 CALM      30.05S

$$

LAZ027-028-231600-
CENTRAL LOUISIANA

CITY           SKY/WX    TMP DP  RH WIND       PRES   REMARKS
FORT POLK      MOSUNNY   84  75  74 W5        30.06S
ALEXANDRIA INT SUNNY     86  75  69 VRB3      30.04S HX  95
ALEXANDRIA     SUNNY     88  75  65 VRB5      30.06R HX  97

$$

LAZ001-002-231600-
NORTHWEST LOUISIANA

CITY           SKY/WX    TMP DP  RH WIND       PRES   REMARKS
SHREVEPORT     SUNNY     85  71  63 W8        30.04S
BARKSDALE AFB  SUNNY     86  70  59 SW6       30.04S
DTN SHREVEPORT SUNNY     84  71  65 SW8       30.04S

$$

LAZ014-016-231600-
NORTHEAST LOUISIANA

CITY           SKY/WX    TMP DP  RH WIND       PRES   REMARKS
MONROE         SUNNY     86  74  67 W5        30.05S
TALLULAH       SUNNY     87  75  67 CALM      30.05S HX  96

$$




USA.gov is the U.S. government's official web portal to all federal, state and local government web resources and services.